Погода в Антипаюте

Погода в Антипаюте : погода сейчас, прогноз погоды и архив. Всё, что Вы хотите узнать о погоде в Антипаюте!

Хотите узнать прогноз погоды в Антипаюте? Тогда Вам сюда: Погода в Антипаюте

Поиск расширенной информации на нашем сайте:

Другие новости

Новости СМИ2

Главная страница сайта

Новости сайта

03.07.2017

Напоминаем, что на нашем специализированном сайте Метеоцентр.Азия вы можете получить высокодетализированные автоматические прогнозы погоды по пунктам России, СНГ и мира в авиационном формате (включающие направление и скорость ветра, видимость, явления погоды, количество и форму облачности, нижнюю и верхнюю границу облачности).


Погода в Антипаюте - сегодня

Время (UTC), дата Ветер
(°,м/с) 
Видим.   Явления Облачность Т
(°С)
Тd
(°С)
f(%) Тe
(°С)
Pmin
(гПа)
dP
(гПа)
Po
(мм)
O2
(г/м3)
Тmin Tmax R s Состояние
почвы
12 15.04.18 290 (З) 20000 м    ясно 
-17 -19.3 82 -22  994.5  1.3  746  322           
15 15.04.18 310 (СЗ) 20000 м    ясно 
-20.5 -22.4 85 -26  995.4  0.8  746  327    -16.9       
18 15.04.18 290 (З) 20000 м    ясно 
-22.6 -24.7 83 -28  995.7  0.3  746  330           
21 15.04.18 340 (С) 20000 м    ясно 
-22.5 -24.7 82 -29  996.2  0.5  747  330           
00 16.04.18 330 (СЗ) 20000 м    ясно 
-24.5 -26.8 81 -31  997.5  1.3  748  333           
03 16.04.18 330 (СЗ) 20000 м    ясно 
-22.3 -24.7 81 -28  999  1.5  749  330           
06 16.04.18 330 (СЗ) 20000 м    4/0 верхняя 
[Ci fib]
-16.9 -19.4 81 -23  1000.9  1.9  750  324           
09 16.04.18 330 (СЗ) 20000 м    10/0 верхняя 
[Cs]
-15.6 -18.2 80 -23  1003  2.1  752  323           
12 16.04.18 320 (СЗ) 20000 м    8/0 средняя 
[Ac trans]
-17.6 -20.3 79 -24  1005.2  2.2  754  326           
18 16.04.18 310 (СЗ) 20000 м    8/0 средняя 
[Ac trans]
-19.1 -21.1 84 -24  1006.4  0.4  754  328           
00 17.04.18 340 (С) 20000 м    10/10 540 м 
[Sc]
-17.4 -19.6 83 -24  1007.8  1.1  755  327           
06 17.04.18 300 (СЗ) 20000 м    ясно 
-18.6 -21.5 78 -24  1010.5  1.5  758  329           
09 17.04.18 270 (З) 20000 м    ясно 
-16.2 -18.8 80 -22  1011.1  0.6  758  326           
12 17.04.18 260 (З) 20000 м    ясно 
-17 -19.4 82 -22  1011.5  0.4  758  327           
18 17.04.18 260 (З) 20000 м    6/0 средняя 
[As trans]
-20.5 -22.4 85 -26  1009.7  -1.3  757  331           
21 17.04.18 220 (ЮЗ) 20000 м    8/0 средняя 
[As trans]
-18.3 -20.1 86 -24  1008.4  -1.3  756  328           
00 18.04.18 200 (Ю) 20000 м    10/0 средняя 
[As op]
-16.4 -18 87 -21  1005.7  -2.7  754  325           
03 18.04.18 170 (Ю) 4000 м  слаб. снег  10/0 средняя 
[As op]
-13.4 -14.9 88 -19  1001.7  -4  751  319  -21.6    0.2  81  неравномерный
мокрый или
старый снег
100% 
15 18.04.18 190 (Ю) 10-14{15}  4000 м  метель{снег}  9/9 540 м 
[Sc]
-7.1 -7.9 94 -14  994.5  -2.4  746  309    -5.9     
18 18.04.18 190 (Ю) 10-14{14}  4000 м  метель  9/8 300 м 
[Sc]
-7 -7.8 94 -14  991.9  -2.6  744  308           
03 19.04.18 150 (ЮВ) 6{10}  4000 м  слаб. снег  10/10 450 м 
[Sc]
-7.6 -8.6 93 -13  989.7  -0.4  742  308  -8.3    0.4  81  неравномерный
мокрый или
старый снег
100% 
09 19.04.18 180 (Ю) 20000 м  позёмок  9/0 средняя 
[Ac trans]
-8.4 -11.1 81 -13  992.4  2.1  744  310           
12 19.04.18 190 (Ю) 20000 м  позёмок  6/0 верхняя 
[Ci fib]
-10.5 -13 82 -16  994.6  2.2  746  314           
18 19.04.18 130 (ЮВ) 20000 м    8/0 средняя 
[Ac trans]
-15.9 -17.6 87 -20  996.6  0.7  747  321           
21 19.04.18 070 (В) 20000 м    9/0 средняя 
[Ac As]
-16.2 -17.7 88 -19  996.8  0.2  747  322           
Время (UTC), дата Ветер
(°,м/с) 
Видим.   Явления Облачность Т
(°С)
Тd
(°С)
f(%) Тe
(°С)
Pmin
(гПа)
dP
(гПа)
Po
(мм)
O2
(г/м3)
Тmin Tmax R s Состояние
почвы

Для получения пояснительной информации подведите курсор к названию столбца.

ПОГОДА в Антипаюте - архив

Всё, что Вы хотите узнать о погоде в Антипаюте - удобно и подробно!

Выберите нужную дату (начиная с 1 января 2015* года) и нажмите кнопку "Найти".
Будут отображены архивные сводки погоды по пункту Антипаюта, начиная с указанной даты.


Отображать данные в формате CSV (для использования в таблицах Excel)


Внимание! Наш архив погоды предназначен исключительно для личного некоммерческого использования в познавательных целях. Если Вам необходимы официальные справки о состоянии погоды (для производственных, юридических, коммерческих и т.п. целей), обращайтесь в органы Росгидромета.

*Примечание: данная дата относится к архиву по метеостанциям СССР (Россия, СНГ, Балтия).
Архив по метеостанциям Зарубежной Европы и Азии (кроме Китая) хранится 10 дней, по другим регионам земного шара (Китай, Африка, Америка, Австралия, Океания) - 1 день.

Антипаюта - район местоположения метеостанции


Название, широта, долгота, высота метеостанции:
Антипаюта 69.2°ш. 77°д. 4 м над ур. моря [Российская Федерация]

Дополнительная информация

В oтличие oт бoльшинства пoгoдных сайтoв мы публикуем пoдрoбную метеoинфoрмацию в детальнoм прoфессиoнальнoм фoрмате.

Характеристики температуры и влажнoсти вoздуха измеряются на высoте 2 м в тени вдали oт зданий и деревьев.
Скoрoсть ветра измеряется на высoте 10 м (на урoвне рoста челoвека скoрoсть ветра ниже в 1.5-2 раза). Если метеoстанция нахoдится в гoрoде или в лесу, тo скoрoсть ветра занижена на 2-4 м/с пo сравнению с oткрытым местoм. Скoрoсть ветра над акватoриями крупных рек и oзёр, а также на вершинах хoлмoв на 2-5 м/с выше, чем в oбычных услoвиях.
Атмoсфернoе давление в разных тoчках местнoсти мoжет значительнo oтличаться oт давления на метеoстанции, в зависимoсти oт услoвий рельефа (при пoдъёме на 10 м давление пoнижается примернo на 1 мм рт.ст.).